Date String (YYYY-MM-DD hh:mm:ss) UTC,Instrument flags,absolute air pressure of the measurement (hPa),sample flow rate (lpm),inlet stack bypass flow (lpm),air temperature of the measurement (°C),ambient temperature measured by the external sensor (°C),aerosol sample conditioner tube jacket temperature (°C),OPC LED temperature (°C),internal box temperature (°C),relative humidity of the measurement (%),span deviation,mass concentration of particles derived from Lorenz-Mie calculation of OPC scattering (μg/m³),mass concentration of particles derived from Lorenz-Mie calculation of OPC scattering (μg/m³),mass concentration of particles derived from Lorenz-Mie calculation of OPC scattering (μg/m³)
DateTimeUTC,F1_M11,P_M11,Q1_M11,Q2_M11,T1_M11,T2_M11,T3_M11,T4_M11,T5_M11,U1_M11,ZSPAN_M11,X2_M11,X0_M11,X1_M11
2023-10-03 06:00:00,SystemResetWarning,0826.4,5.00,000.00,028.7,027.7,000.0,037.0,030.6,30.3,0000.0,0002.29,0006.35,0001.66
2023-10-03 06:01:00,SystemResetWarning,0826.4,4.99,000.00,028.7,027.8,000.0,037.0,030.6,30.3,0000.0,0002.36,0006.54,0001.74
2023-10-03 06:02:00,SystemResetWarning,0826.4,4.99,000.00,028.7,026.7,000.0,037.0,030.5,30.2,0000.0,0002.48,0007.24,0001.80
2023-10-03 06:03:00,SystemResetWarning,0826.4,5.00,000.00,028.7,025.0,000.0,037.0,030.3,30.2,0000.0,0002.66,0007.44,0001.89
2023-10-03 06:04:00,SystemResetWarning,0826.4,5.00,000.00,028.6,024.4,000.0,036.9,030.1,30.3,0000.0,0002.79,0007.47,0001.97
2023-10-03 06:05:00,SystemResetWarning,0826.4,5.00,000.00,028.4,024.6,000.0,036.9,029.9,30.5,0000.0,0002.89,0006.80,0002.06
2023-10-03 06:06:00,SystemResetWarning,0826.4,5.01,000.00,028.4,024.9,000.0,036.9,029.8,30.6,0000.0,0003.04,0006.78,0002.16
2023-10-03 06:07:00,SystemResetWarning,0826.4,5.00,000.00,028.3,025.3,000.0,036.9,029.9,30.7,0000.0,0003.05,0006.63,0002.21
2023-10-03 06:08:00,SystemResetWarning,0826.4,5.00,000.00,028.3,025.7,000.0,036.9,029.9,30.8,0000.0,0003.09,0006.71,0002.25
2023-10-03 06:09:00,SystemResetWarning,0826.4,5.00,000.00,028.3,026.0,000.0,036.9,029.9,30.8,0000.0,0003.11,0006.77,0002.28
2023-10-03 06:10:00,SystemResetWarning,0826.4,5.00,000.00,028.3,026.2,000.0,036.8,030.0,30.9,0000.0,0003.14,0007.44,0002.30
2023-10-03 06:11:00,SystemResetWarning,0826.4,5.00,000.00,028.3,026.4,000.0,036.8,030.0,30.9,0000.0,0003.13,0006.53,0002.30
2023-10-03 06:12:00,SystemResetWarning,0826.3,5.00,000.00,028.3,026.6,000.0,036.8,030.0,30.9,0000.0,0003.13,0006.17,0002.30
2023-10-03 06:13:00,SystemResetWarning,0826.4,5.00,000.00,028.3,026.7,000.0,036.8,030.1,30.9,0000.0,0003.11,0005.60,0002.30
2023-10-03 06:14:00,SystemResetWarning,0826.4,4.99,000.00,028.3,026.9,000.0,036.8,030.1,30.8,0000.0,0003.08,0005.43,0002.30
2023-10-03 06:15:00,SystemResetWarning,0826.5,4.98,000.00,028.3,027.0,000.0,036.8,030.1,30.8,0000.0,0003.08,0005.65,0002.30
2023-10-03 06:16:00,SystemResetWarning,0826.6,5.00,000.00,028.4,027.0,000.0,036.8,030.1,30.8,0000.0,0003.10,0005.79,0002.32
2023-10-03 06:17:00,SystemResetWarning,0826.6,5.00,000.00,028.4,027.1,000.0,036.8,030.2,30.8,0000.0,0003.11,0005.66,0002.32
2023-10-03 06:18:00,SystemResetWarning,0826.6,5.00,000.00,028.4,027.1,000.0,036.8,030.2,30.8,0000.0,0003.16,0006.61,0002.34
2023-10-03 06:19:00,SystemResetWarning,0826.6,5.00,000.00,028.4,027.2,000.0,036.8,030.2,30.8,0000.0,0003.19,0007.24,0002.35
2023-10-03 06:20:00,SystemResetWarning,0826.6,5.00,000.00,028.4,027.2,000.0,036.8,030.2,30.8,0000.0,0003.21,0007.34,0002.36
2023-10-03 06:21:00,SystemResetWarning,0826.6,5.00,000.00,028.4,027.2,000.0,036.8,030.2,30.7,0000.0,0003.26,0007.07,0002.38
2023-10-03 06:22:00,SystemResetWarning,0826.6,5.01,000.00,028.5,027.3,000.0,036.8,030.2,30.7,0000.0,0003.31,0007.20,0002.42
2023-10-03 06:23:00,SystemResetWarning,0826.6,5.00,000.00,028.5,027.3,000.0,036.8,030.2,30.6,0000.0,0003.32,0007.20,0002.47
2023-10-03 06:24:00,SystemResetWarning,0826.6,5.00,000.00,028.5,027.3,000.0,036.9,030.3,30.6,0000.0,0003.32,0007.21,0002.49
2023-10-03 06:25:00,SystemResetWarning,0826.6,4.99,000.00,028.5,027.3,000.0,036.9,030.3,30.6,0000.0,0003.31,0007.13,0002.51
2023-10-03 06:26:00,SystemResetWarning,0826.6,4.99,000.00,028.5,027.3,000.0,036.9,030.3,30.5,0000.0,0003.29,0006.83,0002.53
2023-10-03 06:27:00,SystemResetWarning,0826.6,4.99,000.00,028.5,027.4,000.0,036.9,030.3,30.4,0000.0,0003.28,0006.69,0002.53
2023-10-03 06:28:00,SystemResetWarning,0826.6,5.00,000.00,028.5,027.4,000.0,036.9,030.3,30.4,0000.0,0003.26,0006.68,0002.53
2023-10-03 06:29:00,SystemResetWarning,0826.6,5.00,000.00,028.5,027.4,000.0,036.9,030.3,30.4,0000.0,0003.27,0006.13,0002.54
2023-10-03 06:30:00,SystemResetWarning,0826.6,5.00,000.00,028.6,027.4,000.0,036.9,030.3,30.4,0000.0,0003.24,0005.38,0002.55
2023-10-03 06:31:00,SystemResetWarning,0826.7,5.00,000.00,028.6,027.4,000.0,036.9,030.3,30.4,0000.0,0003.26,0005.44,0002.56
2023-10-03 06:32:00,SystemResetWarning,0826.8,5.00,000.00,028.6,027.5,000.0,037.0,030.3,30.3,0000.0,0003.22,0005.14,0002.57
2023-10-03 06:33:00,SystemResetWarning,0826.8,4.99,000.00,028.6,027.5,000.0,037.0,030.4,30.2,0000.0,0003.21,0005.02,0002.56
2023-10-03 06:34:00,SystemResetWarning,0826.8,5.00,000.00,028.6,027.5,000.0,037.0,030.4,30.2,0000.0,0003.21,0005.01,0002.56
2023-10-03 06:35:00,SystemResetWarning,0826.8,5.00,000.00,028.6,027.5,000.0,037.0,030.4,30.1,0000.0,0003.21,0005.24,0002.56
2023-10-03 06:36:00,SystemResetWarning,0826.9,5.00,000.00,028.6,027.5,000.0,037.0,030.4,30.0,0000.0,0003.26,0005.41,0002.57
2023-10-03 06:37:00,SystemResetWarning,0826.9,5.00,000.00,028.6,026.9,000.0,037.0,030.3,30.0,0000.0,0003.32,0005.68,0002.59
2023-10-03 06:38:00,SystemResetWarning,0826.9,5.01,000.00,028.6,025.1,000.0,037.0,030.1,30.0,0000.0,0003.36,0005.91,0002.59
2023-10-03 06:39:00,SystemResetWarning,0826.9,5.00,000.00,028.5,024.2,000.0,036.9,030.0,30.2,0000.0,0003.43,0007.90,0002.60
2023-10-03 06:40:00,SystemResetWarning,0826.9,5.01,000.00,028.4,024.3,000.0,036.9,029.7,30.4,0000.0,0003.42,0008.02,0002.59
2023-10-03 06:41:00,SystemResetWarning,0826.9,5.00,000.00,028.3,024.6,000.0,036.9,029.7,30.6,0000.0,0003.45,0008.12,0002.60
2023-10-03 06:42:00,SystemResetWarning,0826.9,5.00,000.00,028.2,025.0,000.0,036.8,029.7,30.7,0000.0,0003.43,0008.05,0002.60
2023-10-03 06:43:00,SystemResetWarning,0826.8,4.99,000.00,028.2,025.4,000.0,036.8,029.7,30.7,0000.0,0003.43,0008.06,0002.60
2023-10-03 06:44:00,SystemResetWarning,0826.8,5.00,000.00,028.2,025.7,000.0,036.8,029.7,30.8,0000.0,0003.43,0008.08,0002.59
2023-10-03 06:45:00,SystemResetWarning,0826.8,5.00,000.00,028.2,026.0,000.0,036.8,029.8,30.8,0000.0,0003.45,0008.14,0002.59
2023-10-03 06:46:00,SystemResetWarning,0826.8,5.00,000.00,028.2,026.2,000.0,036.8,029.8,30.8,0000.0,0003.49,0008.18,0002.61
2023-10-03 06:47:00,SystemResetWarning,0826.8,5.00,000.00,028.2,026.4,000.0,036.7,029.8,30.8,0000.0,0003.49,0008.07,0002.61
2023-10-03 06:48:00,SystemResetWarning,0826.8,5.00,000.00,028.2,026.5,000.0,036.7,029.9,30.8,0000.0,0003.45,0008.21,0002.59
2023-10-03 06:49:00,SystemResetWarning,0826.8,5.00,000.00,028.2,026.6,000.0,036.7,029.9,30.8,0000.0,0003.43,0008.15,0002.57
2023-10-03 06:50:00,SystemResetWarning,0826.8,5.01,000.00,028.2,026.7,000.0,036.7,029.9,30.7,0000.0,0003.40,0007.19,0002.56
2023-10-03 06:51:00,SystemResetWarning,0826.8,5.00,000.00,028.2,026.8,000.0,036.7,029.9,30.7,0000.0,0003.42,0006.39,0002.57
2023-10-03 06:52:00,SystemResetWarning,0826.9,5.00,000.00,028.2,026.9,000.0,036.7,030.0,30.6,0000.0,0003.42,0006.37,0002.58
2023-10-03 06:53:00,SystemResetWarning,0826.9,4.99,000.00,028.2,026.9,000.0,036.7,030.0,30.6,0000.0,0003.39,0006.26,0002.57
2023-10-03 06:54:00,SystemResetWarning,0826.9,5.00,000.00,028.2,027.0,000.0,036.7,030.0,30.5,0000.0,0003.39,0006.14,0002.59
2023-10-03 06:55:00,SystemResetWarning,0827.0,5.00,000.00,028.3,027.0,000.0,036.7,030.0,30.5,0000.0,0003.40,0006.20,0002.61
2023-10-03 06:56:00,SystemResetWarning,0827.0,5.00,000.00,028.3,027.1,000.0,036.7,030.1,30.4,0000.0,0003.42,0006.37,0002.62
2023-10-03 06:57:00,SystemResetWarning,0827.0,5.02,000.00,028.3,027.1,000.0,036.7,030.1,30.3,0000.0,0003.38,0006.13,0002.62
2023-10-03 06:58:00,SystemResetWarning,0827.0,5.00,000.00,028.3,027.1,000.0,036.7,030.1,30.3,0000.0,0003.38,0006.21,0002.63
2023-10-03 06:59:00,SystemResetWarning,0827.1,5.00,000.00,028.3,027.2,000.0,036.7,030.1,30.2,0000.0,0003.37,0005.85,0002.65
